PSW9901 YBAS-VHHX

Flight info

Callsign PSW9901
Flight time N/A
Altitude 34000
Route DIGLA A461 AGUST/N0500F360 A461 BONDA/N0495F380 A461 ZAM A583 LEGED/N0489F400 A583 SABNO
Aircraft B742/H-SDFHIRWXY/L

Departure

Time 2026-05-06 07:12
Airport Alice Springs Airport (YBAS)

Arrival

Time N/A
Airport Hong Kong International Airport Kai Tak (VHHX)
Time Latitude Longitude Altitude Speed Heading
2026-05-06 06:53 -23.80253 133.90062 1810 ft 0 kts 31°
2026-05-06 06:57 -23.80256 133.90061 1811 ft 2 kts 31°
2026-05-06 06:57 -23.80269 133.90052 1811 ft 3 kts 31°
2026-05-06 06:57 -23.80286 133.90041 1811 ft 3 kts 31°
2026-05-06 06:57 -23.80303 133.90030 1811 ft 3 kts 31°
2026-05-06 06:58 -23.80321 133.90018 1811 ft 3 kts 31°
2026-05-06 06:58 -23.80327 133.90014 1811 ft 0 kts 31°
2026-05-06 06:58 -23.80337 133.90008 1811 ft 2 kts 31°
2026-05-06 06:58 -23.80353 133.89997 1811 ft 3 kts 31°
2026-05-06 06:59 -23.80360 133.89993 1811 ft 0 kts 31°
2026-05-06 06:59 -23.80359 133.89993 1811 ft 0 kts 31°
2026-05-06 07:01 -23.80359 133.89994 1811 ft 0 kts 31°
2026-05-06 07:02 -23.80358 133.89994 1811 ft 0 kts 31°
2026-05-06 07:03 -23.80356 133.89995 1811 ft 1 kts 33°
2026-05-06 07:03 -23.80343 133.90007 1811 ft 2 kts 47°
2026-05-06 07:04 -23.80335 133.90027 1811 ft 2 kts 82°
2026-05-06 07:04 -23.80336 133.90043 1811 ft 4 kts 99°
2026-05-06 07:04 -23.80348 133.90067 1811 ft 4 kts 129°
2026-05-06 07:04 -23.80359 133.90078 1811 ft 1 kts 147°
2026-05-06 07:05 -23.80362 133.90080 1811 ft 1 kts 152°
2026-05-06 07:05 -23.80367 133.90081 1811 ft 1 kts 167°
2026-05-06 07:05 -23.80371 133.90081 1811 ft 1 kts 182°
2026-05-06 07:05 -23.80384 133.90076 1811 ft 6 kts 204°
2026-05-06 07:06 -23.80441 133.90042 1811 ft 7 kts 213°
2026-05-06 07:06 -23.80457 133.90006 1811 ft 7 kts 270°
2026-05-06 07:06 -23.80451 133.89962 1811 ft 2 kts 301°
2026-05-06 07:06 -23.80425 133.89917 1811 ft 12 kts 301°
2026-05-06 07:07 -23.80364 133.89810 1811 ft 22 kts 302°
2026-05-06 07:07 -23.80278 133.89657 1811 ft 23 kts 300°
2026-05-06 07:07 -23.80206 133.89525 1811 ft 18 kts 301°
2026-05-06 07:07 -23.80156 133.89434 1811 ft 7 kts 298°
2026-05-06 07:08 -23.80149 133.89414 1811 ft 1 kts 282°
2026-05-06 07:08 -23.80149 133.89403 1811 ft 2 kts 266°
2026-05-06 07:08 -23.80154 133.89378 1811 ft 7 kts 256°
2026-05-06 07:08 -23.80154 133.89359 1811 ft 1 kts 288°
2026-05-06 07:09 -23.80150 133.89353 1811 ft 2 kts 298°
2026-05-06 07:09 -23.80143 133.89344 1811 ft 1 kts 318°
2026-05-06 07:09 -23.80137 133.89341 1811 ft 1 kts 335°
2026-05-06 07:09 -23.80129 133.89340 1811 ft 2 kts 358°
2026-05-06 07:10 -23.80121 133.89344 1811 ft 1 kts 29°
2026-05-06 07:10 -23.80115 133.89356 1811 ft 2 kts 76°
2026-05-06 07:10 -23.80120 133.89370 1811 ft 0 kts 124°
2026-05-06 07:11 -23.80120 133.89371 1811 ft 0 kts 124°
2026-05-06 07:11 -23.80132 133.89389 1811 ft 19 kts 123°
2026-05-06 07:12 -23.80328 133.89749 1811 ft 92 kts 120°
2026-05-06 07:12 -23.80780 133.90589 1811 ft 164 kts 122°
2026-05-06 07:12 -23.81427 133.91802 2210 ft 198 kts 122°
2026-05-06 07:12 -23.82130 133.93136 3261 ft 208 kts 122°
2026-05-06 07:13 -23.82898 133.94588 4202 ft 235 kts 122°
2026-05-06 07:13 -23.83753 133.96197 5553 ft 246 kts 121°
2026-05-06 07:13 -23.84618 133.97818 7187 ft 246 kts 121°
2026-05-06 07:13 -23.85452 133.99382 8794 ft 231 kts 122°
2026-05-06 07:14 -23.86267 134.00910 9897 ft 237 kts 122°
2026-05-06 07:14 -23.87141 134.02483 10688 ft 249 kts 124°
2026-05-06 07:14 -23.87894 134.04219 11414 ft 260 kts 106°
2026-05-06 07:14 -23.88030 134.06238 12045 ft 277 kts 89°
2026-05-06 07:15 -23.87680 134.08369 12538 ft 297 kts 71°
2026-05-06 07:15 -23.86593 134.10342 13037 ft 315 kts 49°
2026-05-06 07:15 -23.84847 134.11840 13583 ft 328 kts 27°
2026-05-06 07:15 -23.82657 134.12620 14175 ft 339 kts
2026-05-06 07:16 -23.80283 134.12576 14776 ft 348 kts 349°
2026-05-06 07:16 -23.77946 134.11839 15366 ft 355 kts 333°
2026-05-06 07:16 -23.75913 134.10315 16038 ft 358 kts 314°
2026-05-06 07:16 -23.74331 134.08254 16987 ft 353 kts 303°
2026-05-06 07:17 -23.73027 134.06029 18011 ft 346 kts 298°
2026-05-06 07:17 -23.71487 134.02995 19241 ft 341 kts 296°
2026-05-06 07:17 -23.70761 134.01477 19826 ft 338 kts 295°
2026-05-06 07:17 -23.69701 133.99202 20641 ft 336 kts 295°
2026-05-06 07:18 -23.68662 133.96937 21367 ft 335 kts 295°
2026-05-06 07:18 -23.67637 133.94665 22009 ft 335 kts 294°
2026-05-06 07:18 -23.66615 133.92380 22577 ft 337 kts 294°
2026-05-06 07:18 -23.65589 133.90077 23089 ft 340 kts 294°
2026-05-06 07:19 -23.64559 133.87755 23584 ft 343 kts 294°
2026-05-06 07:19 -23.63520 133.85401 24017 ft 348 kts 294°
2026-05-06 07:19 -23.62437 133.83030 24424 ft 353 kts 299°
2026-05-06 07:19 -23.60856 133.80974 24836 ft 361 kts 316°
2026-05-06 07:20 -23.58805 133.79370 25255 ft 369 kts 328°
2026-05-06 07:20 -23.56387 133.78352 25678 ft 379 kts 340°
2026-05-06 07:20 -23.53788 133.77739 26097 ft 387 kts 345°
2026-05-06 07:20 -23.51111 133.77306 26510 ft 393 kts 347°
2026-05-06 07:21 -23.48385 133.76928 26917 ft 398 kts 347°
2026-05-06 07:21 -23.45629 133.76544 27320 ft 403 kts 346°
2026-05-06 07:21 -23.42844 133.76120 27723 ft 407 kts 346°
2026-05-06 07:21 -23.40041 133.75647 28126 ft 411 kts 345°
2026-05-06 07:22 -23.37213 133.75121 28544 ft 415 kts 343°
2026-05-06 07:22 -23.34367 133.74546 28970 ft 419 kts 342°
2026-05-06 07:22 -23.31499 133.73926 29404 ft 423 kts 342°
2026-05-06 07:22 -23.28625 133.73270 29868 ft 426 kts 341°
2026-05-06 07:23 -23.25727 133.72581 30343 ft 428 kts 340°
2026-05-06 07:23 -23.22819 133.71865 30832 ft 430 kts 340°
2026-05-06 07:23 -23.19904 133.71131 31352 ft 433 kts 339°
2026-05-06 07:23 -23.16973 133.70378 31897 ft 434 kts 339°
2026-05-06 07:24 -23.14043 133.69612 32445 ft 435 kts 338°
2026-05-06 07:24 -23.11112 133.68837 32992 ft 434 kts 338°
2026-05-06 07:24 -23.08186 133.68056 33540 ft 433 kts 338°
2026-05-06 07:24 -23.05272 133.67272 34087 ft 432 kts 338°
2026-05-06 07:25 -23.02374 133.66488 34634 ft 430 kts 337°
2026-05-06 07:25 -22.99492 133.65705 35179 ft 427 kts 337°
2026-05-06 07:25 -22.96621 133.64922 35726 ft 425 kts 337°
2026-05-06 07:25 -22.93769 133.64142 36257 ft 423 kts 336°
2026-05-06 07:26 -22.90936 133.63364 36709 ft 422 kts 336°
2026-05-06 07:26 -22.88095 133.62580 37138 ft 421 kts 336°
2026-05-06 07:26 -22.85266 133.61798 37521 ft 421 kts 336°
2026-05-06 07:26 -22.82429 133.61011 37798 ft 423 kts 336°
2026-05-06 07:27 -22.79585 133.60220 38026 ft 425 kts 336°
2026-05-06 07:27 -22.76722 133.59422 38157 ft 428 kts 336°
2026-05-06 07:27 -22.73829 133.58614 38190 ft 433 kts 336°
2026-05-06 07:28 -22.67985 133.56986 38189 ft 435 kts 336°
2026-05-06 07:28 -22.59175 133.54551 38178 ft 438 kts 336°
2026-05-06 07:29 -22.53279 133.52926 38178 ft 439 kts 336°
2026-05-06 07:29 -22.47375 133.51300 38168 ft 439 kts 336°
2026-05-06 07:30 -22.41465 133.49671 38161 ft 440 kts 336°
2026-05-06 07:30 -22.35548 133.48043 38160 ft 440 kts 336°
2026-05-06 07:31 -22.29631 133.46415 38158 ft 440 kts 336°
2026-05-06 07:31 -22.23708 133.44786 38152 ft 440 kts 336°
2026-05-06 07:32 -22.17779 133.43156 38152 ft 441 kts 336°
2026-05-06 07:32 -22.11848 133.41527 38144 ft 441 kts 336°
2026-05-06 07:33 -22.05914 133.39893 38137 ft 441 kts 337°
2026-05-06 07:33 -21.99986 133.38269 38138 ft 441 kts 336°
2026-05-06 07:34 -21.94057 133.36642 38129 ft 441 kts 336°
2026-05-06 07:34 -21.88125 133.35014 38118 ft 441 kts 336°
2026-05-06 07:35 -21.82192 133.33387 38115 ft 441 kts 336°
2026-05-06 07:35 -21.76257 133.31759 38106 ft 441 kts 336°
2026-05-06 07:36 -21.70324 133.30134 38102 ft 441 kts 336°
2026-05-06 07:36 -21.64400 133.28511 38100 ft 440 kts 336°
2026-05-06 07:37 -21.58484 133.26890 38091 ft 440 kts 336°
2026-05-06 07:37 -21.52573 133.25268 38088 ft 440 kts 336°
2026-05-06 07:38 -21.46667 133.23645 38088 ft 439 kts 336°
2026-05-06 07:38 -21.40760 133.22015 38084 ft 439 kts 336°
2026-05-06 07:39 -21.34862 133.20375 38079 ft 439 kts 336°
2026-05-06 07:39 -21.28950 133.18765 38078 ft 439 kts 336°
2026-05-06 07:40 -21.23030 133.17195 38071 ft 440 kts 336°
2026-05-06 07:40 -21.17111 133.15629 38066 ft 441 kts 337°
2026-05-06 07:41 -21.11149 133.14045 38066 ft 442 kts 337°
2026-05-06 07:41 -21.05187 133.12456 38059 ft 443 kts 337°
2026-05-06 07:42 -20.99217 133.10859 38053 ft 444 kts 337°
2026-05-06 07:42 -20.93239 133.09259 38052 ft 444 kts 336°
2026-05-06 07:43 -20.87259 133.07655 38046 ft 444 kts 336°
2026-05-06 07:43 -20.81281 133.06051 38044 ft 444 kts 336°
2026-05-06 07:44 -20.75302 133.04445 38042 ft 444 kts 336°
2026-05-06 07:44 -20.69315 133.02836 38037 ft 446 kts 336°
2026-05-06 07:45 -20.63313 133.01222 38036 ft 447 kts 336°
2026-05-06 07:45 -20.57297 132.99607 38038 ft 447 kts 336°
2026-05-06 07:46 -20.51274 132.97991 38034 ft 448 kts 336°
2026-05-06 07:46 -20.45243 132.96374 38034 ft 448 kts 336°
2026-05-06 07:47 -20.39209 132.94758 38065 ft 449 kts 336°
2026-05-06 07:47 -20.33166 132.93140 38068 ft 449 kts 336°
2026-05-06 07:48 -20.27126 132.91521 38068 ft 448 kts 338°
2026-05-06 07:48 -20.21093 132.89912 38066 ft 449 kts 337°
2026-05-06 07:49 -20.15042 132.88293 38067 ft 450 kts 337°
2026-05-06 07:49 -20.08969 132.86669 38066 ft 452 kts 337°
2026-05-06 07:50 -20.02888 132.85047 38066 ft 452 kts 337°
2026-05-06 07:50 -19.96800 132.83425 38066 ft 453 kts 337°
2026-05-06 07:51 -19.90702 132.81802 38065 ft 453 kts 337°
2026-05-06 07:51 -19.84608 132.80181 38065 ft 453 kts 337°
2026-05-06 07:52 -19.78509 132.78559 38065 ft 453 kts 337°
2026-05-06 07:52 -19.72405 132.76937 38064 ft 453 kts 337°
2026-05-06 07:53 -19.66308 132.75315 38063 ft 453 kts 338°
2026-05-06 07:53 -19.60200 132.73692 38088 ft 455 kts 338°
2026-05-06 07:54 -19.54088 132.72069 38097 ft 455 kts 338°
2026-05-06 07:54 -19.47940 132.70438 38095 ft 456 kts 338°
2026-05-06 07:55 -19.41801 132.68812 38094 ft 456 kts 338°
2026-05-06 07:55 -19.35660 132.67185 38097 ft 456 kts 338°
2026-05-06 07:56 -19.29514 132.65557 38091 ft 457 kts 338°
2026-05-06 07:56 -19.23369 132.63930 38086 ft 457 kts 338°
2026-05-06 07:57 -19.17214 132.62298 38085 ft 458 kts 338°
2026-05-06 07:57 -19.11047 132.60663 38085 ft 459 kts 338°
2026-05-06 07:58 -19.04882 132.59028 38085 ft 459 kts 338°
2026-05-06 07:58 -18.98682 132.57382 38085 ft 460 kts 338°
2026-05-06 07:59 -18.92497 132.55736 38084 ft 460 kts 338°
2026-05-06 07:59 -18.86310 132.54079 38085 ft 460 kts 338°
2026-05-06 08:00 -18.80121 132.52423 38085 ft 460 kts 338°
2026-05-06 08:00 -18.73917 132.50820 38084 ft 460 kts 338°
2026-05-06 08:01 -18.67709 132.49231 38084 ft 460 kts 339°
2026-05-06 08:01 -18.61502 132.47641 38084 ft 461 kts 339°
2026-05-06 08:02 -18.55294 132.46044 38083 ft 460 kts 339°
2026-05-06 08:02 -18.49087 132.44441 38084 ft 461 kts 339°
2026-05-06 08:03 -18.42888 132.42834 38086 ft 458 kts 339°
2026-05-06 08:03 -18.36699 132.41227 38080 ft 460 kts 339°
2026-05-06 08:04 -18.30507 132.39615 38082 ft 460 kts 339°
2026-05-06 08:04 -18.24310 132.38001 38080 ft 460 kts 339°
2026-05-06 08:05 -18.18104 132.36382 38080 ft 461 kts 339°
2026-05-06 08:05 -18.11881 132.34760 38081 ft 462 kts 339°
2026-05-06 08:06 -18.05650 132.33138 38080 ft 463 kts 339°
2026-05-06 08:06 -17.99406 132.31513 38032 ft 464 kts 339°
2026-05-06 08:07 -17.93167 132.29891 38011 ft 464 kts 339°
2026-05-06 08:07 -17.86916 132.28267 38007 ft 464 kts 339°
2026-05-06 08:08 -17.80668 132.26644 38007 ft 464 kts 339°
2026-05-06 08:08 -17.74416 132.25021 38007 ft 464 kts 339°
2026-05-06 08:09 -17.68160 132.23397 38004 ft 465 kts 339°
2026-05-06 08:09 -17.61891 132.21769 38006 ft 466 kts 339°
2026-05-06 08:10 -17.55613 132.20139 38004 ft 466 kts 339°
2026-05-06 08:10 -17.49328 132.18509 38002 ft 467 kts 339°
2026-05-06 08:11 -17.43037 132.16877 38001 ft 467 kts 339°
2026-05-06 08:11 -17.36748 132.15246 38000 ft 467 kts 339°
2026-05-06 08:12 -17.30452 132.13611 38000 ft 467 kts 339°
2026-05-06 08:12 -17.24160 132.11976 38000 ft 467 kts 339°
2026-05-06 08:13 -17.17870 132.10337 37999 ft 467 kts 339°
2026-05-06 08:13 -17.11576 132.08690 38000 ft 468 kts 339°
2026-05-06 08:14 -17.05283 132.07029 38000 ft 468 kts 339°
2026-05-06 08:14 -16.98983 132.05405 37999 ft 468 kts 339°
2026-05-06 08:15 -16.92665 132.03819 38000 ft 468 kts 339°
2026-05-06 08:15 -16.86346 132.02239 37999 ft 468 kts 339°
2026-05-06 08:16 -16.80019 132.00652 37996 ft 469 kts 339°
2026-05-06 08:16 -16.73696 131.99058 37995 ft 469 kts 339°
2026-05-06 08:17 -16.67373 131.97457 37994 ft 469 kts 340°
2026-05-06 08:17 -16.61053 131.95853 37994 ft 469 kts 340°
2026-05-06 08:18 -16.54735 131.94245 37998 ft 466 kts 341°
2026-05-06 08:18 -16.48447 131.92647 37993 ft 467 kts 339°
2026-05-06 08:19 -16.42148 131.91042 37994 ft 468 kts 339°
2026-05-06 08:19 -16.35838 131.89433 37994 ft 468 kts 339°
2026-05-06 08:20 -16.29530 131.87825 37994 ft 468 kts 339°
2026-05-06 08:20 -16.23214 131.86215 37994 ft 469 kts 340°
2026-05-06 08:21 -16.16899 131.84606 37994 ft 469 kts 340°
2026-05-06 08:21 -16.10575 131.82996 37994 ft 469 kts 340°
2026-05-06 08:22 -16.04251 131.81387 37994 ft 469 kts 340°
2026-05-06 08:22 -15.97922 131.79778 37994 ft 470 kts 340°
2026-05-06 08:23 -15.91592 131.78169 37994 ft 470 kts 340°
2026-05-06 08:23 -15.85258 131.76561 37994 ft 470 kts 340°
2026-05-06 08:24 -15.78926 131.74954 37994 ft 470 kts 340°
2026-05-06 08:24 -15.72586 131.73346 37994 ft 471 kts 340°
2026-05-06 08:25 -15.66240 131.71735 37994 ft 471 kts 340°
2026-05-06 08:25 -15.59888 131.70125 37994 ft 471 kts 340°
2026-05-06 08:26 -15.53531 131.68515 37992 ft 472 kts 340°
2026-05-06 08:26 -15.47172 131.66907 37992 ft 472 kts 340°
2026-05-06 08:27 -15.40816 131.65300 37990 ft 472 kts 340°
2026-05-06 08:27 -15.34452 131.63692 37990 ft 472 kts 340°
2026-05-06 08:28 -15.28112 131.62090 37988 ft 472 kts 340°
2026-05-06 08:28 -15.21730 131.60479 37986 ft 472 kts 340°
2026-05-06 08:29 -15.15362 131.58870 37987 ft 472 kts 340°
2026-05-06 08:29 -15.08994 131.57264 37984 ft 473 kts 340°
2026-05-06 08:30 -15.02615 131.55656 37981 ft 473 kts 340°
2026-05-06 08:30 -14.96237 131.54050 37980 ft 473 kts 340°
2026-05-06 08:31 -14.89850 131.52442 37977 ft 474 kts 340°
2026-05-06 08:31 -14.83465 131.50835 37975 ft 474 kts 340°
2026-05-06 08:32 -14.77077 131.49229 37975 ft 474 kts 340°
2026-05-06 08:32 -14.70691 131.47623 37973 ft 474 kts 340°
2026-05-06 08:33 -14.64300 131.46015 37975 ft 473 kts 342°
2026-05-06 08:33 -14.57945 131.44420 37972 ft 474 kts 340°
2026-05-06 08:34 -14.48314 131.42002 37971 ft 475 kts 340°
2026-05-06 08:35 -14.41903 131.40393 37971 ft 476 kts 340°
2026-05-06 08:35 -14.35485 131.38783 37971 ft 476 kts 340°
2026-05-06 08:36 -14.29065 131.37174 37970 ft 476 kts 340°
2026-05-06 08:36 -14.22643 131.35564 37970 ft 476 kts 340°
2026-05-06 08:37 -14.16213 131.33950 37970 ft 477 kts 341°
2026-05-06 08:37 -14.09784 131.32338 37970 ft 477 kts 341°
2026-05-06 08:38 -14.03353 131.30725 37971 ft 477 kts 341°
2026-05-06 08:38 -13.96915 131.29110 37966 ft 478 kts 341°
2026-05-06 08:39 -13.90478 131.27494 37956 ft 478 kts 341°
2026-05-06 08:39 -13.84033 131.25874 37942 ft 478 kts 341°
2026-05-06 08:40 -13.77593 131.24250 37933 ft 478 kts 341°
2026-05-06 08:40 -13.71151 131.22617 37929 ft 478 kts 340°
2026-05-06 08:41 -13.64709 131.20972 37924 ft 478 kts 341°
2026-05-06 08:41 -13.58256 131.19382 37924 ft 479 kts 341°
2026-05-06 08:42 -13.51787 131.17815 37922 ft 479 kts 341°
2026-05-06 08:42 -13.45321 131.16249 37919 ft 479 kts 341°
2026-05-06 08:43 -13.38849 131.14674 37919 ft 479 kts 341°
2026-05-06 08:43 -13.32379 131.13091 37916 ft 479 kts 341°
2026-05-06 08:44 -13.25914 131.11504 37917 ft 479 kts 341°
2026-05-06 08:44 -13.19449 131.09911 37917 ft 479 kts 341°
2026-05-06 08:45 -13.12983 131.08315 37910 ft 479 kts 341°
2026-05-06 08:45 -13.06523 131.06717 37908 ft 479 kts 341°
2026-05-06 08:46 -13.00067 131.05120 37908 ft 479 kts 341°
2026-05-06 08:46 -12.93612 131.03521 37906 ft 479 kts 341°
2026-05-06 08:47 -12.87157 131.01921 37905 ft 479 kts 341°
2026-05-06 08:47 -12.80703 131.00321 37905 ft 479 kts 341°
2026-05-06 08:48 -12.74244 130.98719 37906 ft 479 kts 341°
2026-05-06 08:48 -12.67806 130.97119 37904 ft 476 kts 341°
2026-05-06 08:49 -12.61371 130.95517 37905 ft 478 kts 341°
2026-05-06 08:49 -12.54934 130.93909 37906 ft 478 kts 340°
2026-05-06 08:50 -12.48491 130.92287 37906 ft 478 kts 340°
2026-05-06 08:50 -12.42070 130.90576 37907 ft 478 kts 339°
2026-05-06 08:51 -12.35700 130.88680 37906 ft 477 kts 338°
2026-05-06 08:51 -12.29371 130.86698 37906 ft 477 kts 337°
2026-05-06 08:52 -12.23059 130.84677 37905 ft 476 kts 337°
2026-05-06 08:52 -12.16763 130.82642 37905 ft 476 kts 337°
2026-05-06 08:53 -12.10470 130.80600 37905 ft 476 kts 337°
2026-05-06 08:53 -12.04179 130.78557 37906 ft 476 kts 337°
2026-05-06 08:54 -11.97889 130.76514 37905 ft 476 kts 337°
2026-05-06 08:54 -11.91601 130.74473 37906 ft 476 kts 337°
2026-05-06 08:55 -11.85313 130.72433 37905 ft 476 kts 336°
2026-05-06 08:55 -11.79019 130.70392 37906 ft 476 kts 336°
2026-05-06 08:56 -11.72721 130.68349 37906 ft 476 kts 336°
2026-05-06 08:56 -11.66425 130.66308 37906 ft 476 kts 336°
2026-05-06 08:57 -11.60130 130.64268 37905 ft 476 kts 336°
2026-05-06 08:57 -11.53831 130.62226 37906 ft 476 kts 336°
2026-05-06 08:58 -11.47540 130.60185 37905 ft 476 kts 336°
2026-05-06 08:58 -11.41244 130.58142 37905 ft 476 kts 336°
2026-05-06 08:59 -11.34952 130.56098 37905 ft 476 kts 336°
2026-05-06 08:59 -11.28663 130.54049 37906 ft 476 kts 336°
2026-05-06 09:00 -11.22378 130.51992 37905 ft 476 kts 336°
2026-05-06 09:00 -11.16091 130.49929 37905 ft 476 kts 336°
2026-05-06 09:01 -11.09787 130.47920 37905 ft 476 kts 337°
2026-05-06 09:01 -11.03477 130.45933 37905 ft 476 kts 337°
2026-05-06 09:02 -10.97165 130.43944 37906 ft 476 kts 337°
2026-05-06 09:02 -10.90848 130.41947 37906 ft 476 kts 337°
2026-05-06 09:03 -10.84539 130.39945 37906 ft 476 kts 337°
2026-05-06 09:03 -10.78239 130.37939 37905 ft 475 kts 337°
2026-05-06 09:04 -10.71943 130.35930 37906 ft 476 kts 337°
2026-05-06 09:04 -10.65641 130.33916 37906 ft 476 kts 337°
2026-05-06 09:05 -10.59343 130.31902 37906 ft 476 kts 337°
2026-05-06 09:05 -10.53039 130.29884 37906 ft 476 kts 337°
2026-05-06 09:06 -10.46739 130.27867 37906 ft 476 kts 337°
2026-05-06 09:06 -10.40435 130.25849 37906 ft 476 kts 337°
2026-05-06 09:07 -10.34129 130.23831 37907 ft 477 kts 336°
2026-05-06 09:07 -10.27817 130.21811 37908 ft 477 kts 336°
2026-05-06 09:08 -10.21493 130.19786 37910 ft 478 kts 336°
2026-05-06 09:08 -10.15168 130.17763 37912 ft 478 kts 336°
2026-05-06 09:09 -10.08841 130.15739 37916 ft 478 kts 336°
2026-05-06 09:09 -10.02510 130.13714 37918 ft 478 kts 336°
2026-05-06 09:10 -9.96182 130.11691 37923 ft 478 kts 336°
2026-05-06 09:10 -9.89851 130.09666 37924 ft 478 kts 336°
2026-05-06 09:11 -9.83522 130.07641 37925 ft 478 kts 336°
2026-05-06 09:11 -9.77186 130.05609 37927 ft 481 kts 338°
2026-05-06 09:12 -9.70796 130.03550 37931 ft 486 kts 339°
2026-05-06 09:12 -9.64325 130.01474 37935 ft 491 kts 339°
2026-05-06 09:13 -9.57809 129.99387 37937 ft 494 kts 339°
2026-05-06 09:13 -9.51269 129.97287 37938 ft 495 kts 339°
2026-05-06 09:14 -9.44715 129.95162 37940 ft 496 kts 339°
2026-05-06 09:14 -9.38140 129.93067 37941 ft 497 kts 340°
2026-05-06 09:15 -9.31545 129.91006 37941 ft 498 kts 340°
2026-05-06 09:15 -9.24946 129.88949 37946 ft 498 kts 340°
2026-05-06 09:16 -9.18345 129.86883 37947 ft 498 kts 340°
2026-05-06 09:16 -9.11745 129.84810 37950 ft 498 kts 340°
2026-05-06 09:17 -9.05145 129.82727 37952 ft 498 kts 340°
2026-05-06 09:17 -8.98550 129.80638 37953 ft 498 kts 340°
2026-05-06 09:18 -8.91953 129.78544 37956 ft 498 kts 340°
2026-05-06 09:18 -8.85390 129.76459 37955 ft 493 kts 340°
2026-05-06 09:19 -8.78849 129.74372 37958 ft 494 kts 340°
2026-05-06 09:19 -8.72297 129.72274 37963 ft 497 kts 340°
2026-05-06 09:20 -8.65720 129.70158 37961 ft 498 kts 340°
2026-05-06 09:20 -8.59134 129.68028 37963 ft 499 kts 340°
2026-05-06 09:21 -8.52525 129.65954 37967 ft 499 kts 341°
2026-05-06 09:21 -8.45882 129.63959 37965 ft 500 kts 342°
2026-05-06 09:22 -8.39226 129.61986 37966 ft 500 kts 342°
2026-05-06 09:22 -8.32568 129.60013 37966 ft 500 kts 342°
2026-05-06 09:23 -8.25911 129.58035 37966 ft 500 kts 341°
2026-05-06 09:23 -8.19253 129.56048 37967 ft 500 kts 342°
2026-05-06 09:24 -8.12598 129.54056 37968 ft 500 kts 342°
2026-05-06 09:24 -8.05948 129.52060 37969 ft 500 kts 342°
2026-05-06 09:25 -7.99296 129.50060 37969 ft 500 kts 342°
2026-05-06 09:25 -7.92646 129.48058 37969 ft 500 kts 342°
2026-05-06 09:26 -7.85999 129.46056 37970 ft 500 kts 342°
2026-05-06 09:26 -7.79351 129.44051 37970 ft 500 kts 341°
2026-05-06 09:27 -7.72704 129.42047 37971 ft 500 kts 342°
2026-05-06 09:27 -7.66065 129.40042 37970 ft 499 kts 342°
2026-05-06 09:28 -7.59438 129.38043 37972 ft 498 kts 342°
2026-05-06 09:28 -7.52811 129.36044 37969 ft 498 kts 342°
2026-05-06 09:29 -7.46190 129.34048 37969 ft 498 kts 342°
2026-05-06 09:29 -7.39570 129.32053 37970 ft 498 kts 342°
2026-05-06 09:30 -7.32947 129.30057 37969 ft 498 kts 342°
2026-05-06 09:30 -7.26330 129.28064 37970 ft 498 kts 342°
2026-05-06 09:31 -7.19710 129.26068 37970 ft 498 kts 342°
2026-05-06 09:31 -7.13094 129.24076 37969 ft 498 kts 342°
2026-05-06 09:32 -7.06468 129.22081 37970 ft 499 kts 342°
2026-05-06 09:32 -6.99833 129.20085 37969 ft 499 kts 342°
2026-05-06 09:33 -6.93196 129.18088 37969 ft 499 kts 342°
2026-05-06 09:33 -6.86568 129.16102 37971 ft 497 kts 343°
2026-05-06 09:34 -6.79953 129.14109 37968 ft 498 kts 342°
2026-05-06 09:34 -6.73330 129.12116 37968 ft 499 kts 342°
2026-05-06 09:35 -6.66698 129.10121 37967 ft 499 kts 343°
2026-05-06 09:35 -6.60063 129.08126 37966 ft 499 kts 343°
2026-05-06 09:36 -6.53429 129.06133 37967 ft 499 kts 343°
2026-05-06 09:36 -6.46792 129.04141 37966 ft 499 kts 343°
2026-05-06 09:37 -6.40151 129.02148 37967 ft 499 kts 343°
2026-05-06 09:37 -6.33513 129.00156 37967 ft 499 kts 343°
2026-05-06 09:38 -6.26870 128.98164 37966 ft 499 kts 343°
2026-05-06 09:38 -6.20234 128.96174 37966 ft 499 kts 342°
2026-05-06 09:39 -6.13580 128.94179 37966 ft 501 kts 343°
2026-05-06 09:39 -6.06910 128.92179 37966 ft 502 kts 343°
2026-05-06 09:40 -6.00226 128.90175 37966 ft 503 kts 343°
2026-05-06 09:40 -5.90180 128.87166 37963 ft 504 kts 343°
2026-05-06 09:41 -5.83480 128.85159 37964 ft 504 kts 343°
2026-05-06 09:41 -5.76775 128.83151 37967 ft 504 kts 343°
2026-05-06 09:42 -5.70069 128.81144 37970 ft 504 kts 342°
2026-05-06 09:42 -5.63362 128.79137 37975 ft 504 kts 342°
2026-05-06 09:43 -5.56656 128.77130 37987 ft 504 kts 342°
2026-05-06 09:43 -5.49944 128.75121 37993 ft 504 kts 342°
2026-05-06 09:44 -5.43243 128.73114 37995 ft 504 kts 343°
2026-05-06 09:44 -5.36543 128.71109 37999 ft 503 kts 343°
2026-05-06 09:45 -5.29875 128.69114 38000 ft 503 kts 343°
2026-05-06 09:45 -5.23161 128.67107 38000 ft 503 kts 343°
2026-05-06 09:46 -5.16468 128.65105 37956 ft 503 kts 343°
2026-05-06 09:46 -5.09797 128.63110 37929 ft 502 kts 343°
2026-05-06 09:47 -5.03123 128.61114 37924 ft 501 kts 343°
2026-05-06 09:47 -4.96453 128.59121 37925 ft 502 kts 343°
2026-05-06 09:48 -4.89785 128.57129 37922 ft 501 kts 343°
2026-05-06 09:48 -4.83100 128.55132 37922 ft 502 kts 343°
2026-05-06 09:49 -4.76445 128.53144 37923 ft 502 kts 343°
2026-05-06 09:49 -4.69743 128.51142 37919 ft 503 kts 343°
2026-05-06 09:50 -4.63045 128.49141 37920 ft 504 kts 343°
2026-05-06 09:50 -4.56333 128.47136 37920 ft 505 kts 343°
2026-05-06 09:51 -4.49608 128.45129 37914 ft 506 kts 343°
2026-05-06 09:51 -4.42880 128.43120 37913 ft 506 kts 343°
2026-05-06 09:52 -4.36152 128.41111 37877 ft 506 kts 343°
2026-05-06 09:52 -4.29422 128.39101 37863 ft 506 kts 343°
2026-05-06 09:53 -4.22713 128.37096 37861 ft 506 kts 343°
2026-05-06 09:53 -4.15962 128.35079 37858 ft 505 kts 343°
2026-05-06 09:54 -4.09245 128.33070 37857 ft 505 kts 343°
2026-05-06 09:54 -4.02531 128.31061 37857 ft 505 kts 343°
2026-05-06 09:55 -3.95821 128.29052 37855 ft 505 kts 343°
2026-05-06 09:55 -3.89114 128.27041 37855 ft 505 kts 343°
2026-05-06 09:56 -3.82406 128.25026 37853 ft 504 kts 343°
2026-05-06 09:56 -3.75703 128.23006 37851 ft 505 kts 343°
2026-05-06 09:57 -3.69010 128.20977 37851 ft 506 kts 343°
2026-05-06 09:57 -3.62303 128.18760 37853 ft 508 kts 338°
2026-05-06 09:58 -3.55911 128.15775 37851 ft 509 kts 333°
2026-05-06 09:58 -3.49708 128.12385 37848 ft 509 kts 330°
2026-05-06 09:59 -3.43591 128.08838 37846 ft 510 kts 329°
2026-05-06 09:59 -3.37497 128.05231 37847 ft 510 kts 329°
2026-05-06 10:00 -3.31404 128.01606 37847 ft 511 kts 329°
2026-05-06 10:00 -3.25315 127.97987 37846 ft 511 kts 329°
2026-05-06 10:01 -3.19234 127.94384 37846 ft 511 kts 329°
2026-05-06 10:01 -3.13112 127.90767 37846 ft 511 kts 329°
2026-05-06 10:02 -3.06991 127.87159 37846 ft 511 kts 329°
2026-05-06 10:02 -3.00872 127.83559 37847 ft 512 kts 329°
2026-05-06 10:03 -2.94752 127.79964 37846 ft 512 kts 329°
2026-05-06 10:03 -2.88626 127.76370 37846 ft 512 kts 329°
2026-05-06 10:04 -2.82501 127.72780 37847 ft 512 kts 329°
2026-05-06 10:04 -2.76374 127.69190 37847 ft 512 kts 329°
2026-05-06 10:05 -2.70279 127.65620 37847 ft 511 kts 330°
2026-05-06 10:05 -2.64143 127.62028 37846 ft 510 kts 330°
2026-05-06 10:06 -2.58042 127.58458 37846 ft 509 kts 330°
2026-05-06 10:06 -2.51944 127.54890 37846 ft 509 kts 330°
2026-05-06 10:07 -2.45851 127.51327 37847 ft 509 kts 330°
2026-05-06 10:07 -2.39757 127.47764 37855 ft 509 kts 330°
2026-05-06 10:08 -2.33664 127.44202 37860 ft 509 kts 330°
2026-05-06 10:08 -2.27570 127.40640 37868 ft 509 kts 330°
2026-05-06 10:09 -2.21495 127.37089 37877 ft 509 kts 330°
2026-05-06 10:09 -2.15386 127.33517 37877 ft 508 kts 330°
2026-05-06 10:10 -2.09300 127.29961 37880 ft 508 kts 330°
2026-05-06 10:10 -2.03217 127.26407 37887 ft 508 kts 330°
2026-05-06 10:11 -1.97133 127.22852 37889 ft 508 kts 330°
2026-05-06 10:11 -1.91032 127.19290 37895 ft 510 kts 329°
2026-05-06 10:12 -1.84912 127.15717 37899 ft 511 kts 329°
2026-05-06 10:12 -1.78788 127.12141 37898 ft 512 kts 329°
2026-05-06 10:13 -1.72675 127.08571 37901 ft 512 kts 329°
2026-05-06 10:13 -1.66521 127.04978 37905 ft 512 kts 329°
2026-05-06 10:14 -1.60385 127.01396 37908 ft 512 kts 329°
2026-05-06 10:14 -1.54244 126.97810 37912 ft 512 kts 329°
2026-05-06 10:15 -1.48109 126.94228 37916 ft 512 kts 329°
2026-05-06 10:15 -1.41971 126.90644 37919 ft 512 kts 329°
2026-05-06 10:16 -1.35833 126.87061 37921 ft 512 kts 329°
2026-05-06 10:16 -1.29692 126.83476 37926 ft 512 kts 329°
2026-05-06 10:17 -1.23576 126.79906 37930 ft 512 kts 329°
2026-05-06 10:17 -1.17658 126.76452 37928 ft 510 kts 329°
2026-05-06 10:18 -1.11563 126.72893 37930 ft 508 kts 329°
2026-05-06 10:18 -1.05475 126.69339 37935 ft 508 kts 329°
2026-05-06 10:19 -0.99395 126.65789 37935 ft 508 kts 329°
2026-05-06 10:19 -0.93318 126.62241 37938 ft 507 kts 329°
2026-05-06 10:20 -0.87241 126.58693 37941 ft 507 kts 329°
2026-05-06 10:20 -0.81176 126.55153 37938 ft 507 kts 329°
2026-05-06 10:21 -0.75088 126.51600 37937 ft 507 kts 329°
2026-05-06 10:21 -0.69012 126.48054 37938 ft 506 kts 329°
2026-05-06 10:22 -0.62952 126.44517 37938 ft 505 kts 330°
2026-05-06 10:22 -0.56903 126.40987 37939 ft 504 kts 330°
2026-05-06 10:23 -0.50864 126.37462 37940 ft 504 kts 330°
2026-05-06 10:23 -0.44826 126.33938 37939 ft 504 kts 330°
2026-05-06 10:24 -0.38793 126.30418 37937 ft 503 kts 330°
2026-05-06 10:24 -0.32777 126.26907 37934 ft 503 kts 330°
2026-05-06 10:25 -0.26729 126.23378 37933 ft 503 kts 330°
2026-05-06 10:25 -0.20699 126.19858 37935 ft 504 kts 330°
2026-05-06 10:26 -0.14654 126.16330 37937 ft 504 kts 330°
2026-05-06 10:26 -0.08610 126.12803 37938 ft 505 kts 330°
2026-05-06 10:27 -0.02559 126.09273 37938 ft 505 kts 330°
2026-05-06 10:27 0.03490 126.05745 37956 ft 505 kts 330°
2026-05-06 10:28 0.09540 126.02215 37966 ft 505 kts 330°
2026-05-06 10:28 0.15576 125.98693 37967 ft 505 kts 330°
2026-05-06 10:29 0.21638 125.95156 37969 ft 505 kts 330°
2026-05-06 10:29 0.27690 125.91624 37970 ft 505 kts 330°
2026-05-06 10:30 0.33738 125.88095 37971 ft 505 kts 330°
2026-05-06 10:30 0.39789 125.84564 37979 ft 505 kts 330°
2026-05-06 10:31 0.45833 125.81037 37983 ft 505 kts 330°
2026-05-06 10:31 0.51879 125.77508 37984 ft 505 kts 330°
2026-05-06 10:32 0.57926 125.73978 37997 ft 505 kts 330°
2026-05-06 10:32 0.63965 125.70454 37994 ft 505 kts 330°
2026-05-06 10:33 0.70037 125.66910 37993 ft 506 kts 330°
2026-05-06 10:33 0.76102 125.63369 37982 ft 506 kts 330°
2026-05-06 10:34 0.82167 125.59828 37957 ft 506 kts 330°
2026-05-06 10:34 0.88234 125.56286 37954 ft 506 kts 330°
2026-05-06 10:35 0.94302 125.52742 37949 ft 507 kts 330°
2026-05-06 10:35 1.00370 125.49198 37951 ft 507 kts 330°
2026-05-06 10:36 1.06437 125.45655 37951 ft 507 kts 330°
2026-05-06 10:36 1.12489 125.42120 37947 ft 507 kts 330°
2026-05-06 10:37 1.18571 125.38567 37947 ft 507 kts 330°
2026-05-06 10:37 1.24640 125.35020 37941 ft 507 kts 330°
2026-05-06 10:38 1.30712 125.31472 37939 ft 507 kts 330°
2026-05-06 10:38 1.36781 125.27924 37940 ft 507 kts 330°
2026-05-06 10:39 1.42846 125.24377 37939 ft 507 kts 330°
2026-05-06 10:39 1.48914 125.20827 37938 ft 506 kts 330°
2026-05-06 10:40 1.54973 125.17281 37939 ft 506 kts 330°
2026-05-06 10:40 1.61012 125.13746 37937 ft 506 kts 330°
2026-05-06 10:41 1.67081 125.10192 37937 ft 506 kts 330°
2026-05-06 10:41 1.73132 125.06645 37937 ft 506 kts 330°
2026-05-06 10:42 1.79183 125.03096 37938 ft 506 kts 330°
2026-05-06 10:42 1.85233 124.99541 37938 ft 506 kts 330°
2026-05-06 10:43 1.91275 124.95985 37938 ft 506 kts 330°
2026-05-06 10:44 2.00332 124.90623 37943 ft 506 kts 329°
2026-05-06 10:44 2.06371 124.87055 37944 ft 506 kts 330°
2026-05-06 10:45 2.12424 124.83514 37947 ft 506 kts 330°
2026-05-06 10:45 2.18480 124.79973 37949 ft 506 kts 330°
2026-05-06 10:46 2.24530 124.76428 37948 ft 505 kts 330°
2026-05-06 10:46 2.30575 124.72874 37950 ft 505 kts 330°
2026-05-06 10:47 2.36610 124.69317 37954 ft 505 kts 329°
2026-05-06 10:47 2.42641 124.65754 37958 ft 505 kts 329°
2026-05-06 10:48 2.48672 124.62184 37962 ft 505 kts 329°
2026-05-06 10:48 2.54697 124.58613 37964 ft 505 kts 329°
2026-05-06 10:49 2.60722 124.55038 37963 ft 505 kts 329°
2026-05-06 10:49 2.66751 124.51458 37966 ft 505 kts 329°
2026-05-06 10:50 2.72772 124.47882 37968 ft 505 kts 329°
2026-05-06 10:50 2.78795 124.44303 37970 ft 505 kts 329°
2026-05-06 10:51 2.84822 124.40720 37974 ft 505 kts 329°
2026-05-06 10:51 2.90843 124.37140 37958 ft 505 kts 329°
2026-05-06 10:52 2.96867 124.33558 37943 ft 505 kts 329°
2026-05-06 10:52 3.02890 124.29975 37942 ft 505 kts 329°
2026-05-06 10:53 3.08913 124.26391 37942 ft 505 kts 329°
2026-05-06 10:53 3.14940 124.22804 37941 ft 505 kts 329°
2026-05-06 10:54 3.20969 124.19215 37943 ft 506 kts 329°
2026-05-06 10:54 3.27002 124.15622 37943 ft 506 kts 329°
2026-05-06 10:55 3.33039 124.12026 37943 ft 506 kts 329°
2026-05-06 10:55 3.39074 124.08431 37943 ft 507 kts 329°
2026-05-06 10:56 3.45115 124.04830 37943 ft 507 kts 329°
2026-05-06 10:56 3.51156 124.01228 37943 ft 507 kts 329°
2026-05-06 10:57 3.57196 123.97624 37944 ft 507 kts 329°
2026-05-06 10:57 3.63236 123.94018 37944 ft 507 kts 329°
2026-05-06 10:58 3.69270 123.90413 37944 ft 507 kts 329°
2026-05-06 10:58 3.75306 123.86802 37944 ft 507 kts 329°
2026-05-06 10:59 3.81337 123.83189 37944 ft 507 kts 329°
2026-05-06 10:59 3.87366 123.79569 37944 ft 507 kts 329°
2026-05-06 11:00 3.93386 123.75940 37944 ft 507 kts 329°
2026-05-06 11:00 3.99415 123.72316 37945 ft 507 kts 330°
2026-05-06 11:01 4.05520 123.68816 37945 ft 507 kts 330°
2026-05-06 11:01 4.11672 123.65369 37946 ft 508 kts 331°
2026-05-06 11:02 4.17833 123.61935 37945 ft 508 kts 331°
2026-05-06 11:02 4.23993 123.58499 37945 ft 508 kts 331°
2026-05-06 11:03 4.30154 123.55051 37946 ft 508 kts 331°
2026-05-06 11:03 4.36305 123.51600 37945 ft 508 kts 330°
2026-05-06 11:04 4.42449 123.48143 37947 ft 508 kts 331°
2026-05-06 11:04 4.48589 123.44681 37947 ft 508 kts 331°
2026-05-06 11:05 4.54726 123.41215 37946 ft 508 kts 331°
2026-05-06 11:05 4.60863 123.37745 37947 ft 508 kts 331°
2026-05-06 11:06 4.66996 123.34274 37947 ft 508 kts 331°
2026-05-06 11:06 4.73129 123.30800 37946 ft 508 kts 331°
2026-05-06 11:07 4.79259 123.27326 37947 ft 508 kts 331°
2026-05-06 11:07 4.85382 123.23857 37948 ft 506 kts 330°
2026-05-06 11:08 4.91492 123.20392 37947 ft 506 kts 330°
2026-05-06 11:08 4.97598 123.16927 37948 ft 506 kts 330°
2026-05-06 11:09 5.03704 123.13461 37948 ft 506 kts 330°
2026-05-06 11:09 5.09810 123.09992 37947 ft 505 kts 330°
2026-05-06 11:10 5.15909 123.06527 37948 ft 505 kts 330°
2026-05-06 11:10 5.22011 123.03060 37946 ft 505 kts 330°
2026-05-06 11:11 5.28112 122.99592 37943 ft 505 kts 330°
2026-05-06 11:11 5.34204 122.96130 37936 ft 504 kts 330°
2026-05-06 11:12 5.40287 122.92672 37937 ft 503 kts 330°
2026-05-06 11:12 5.46350 122.89223 37938 ft 502 kts 329°
2026-05-06 11:13 5.52395 122.85783 37935 ft 500 kts 329°
2026-05-06 11:13 5.58408 122.82358 37936 ft 498 kts 330°
2026-05-06 11:14 5.64402 122.78943 37963 ft 496 kts 330°
2026-05-06 11:14 5.70380 122.75537 37996 ft 495 kts 330°
2026-05-06 11:15 5.76352 122.72133 37998 ft 495 kts 330°
2026-05-06 11:15 5.82323 122.68728 37923 ft 495 kts 330°
2026-05-06 11:16 5.88305 122.65317 37909 ft 496 kts 330°
2026-05-06 11:16 5.94300 122.61897 37911 ft 498 kts 330°
2026-05-06 11:17 6.00310 122.58467 37907 ft 499 kts 330°
2026-05-06 11:17 6.06332 122.55028 37891 ft 500 kts 330°
2026-05-06 11:18 6.12300 122.51618 37892 ft 501 kts 330°
2026-05-06 11:18 6.18390 122.48136 37885 ft 501 kts 331°
2026-05-06 11:19 6.24437 122.44678 37883 ft 501 kts 330°
2026-05-06 11:19 6.30479 122.41218 37886 ft 501 kts 330°
2026-05-06 11:20 6.37524 122.37177 37878 ft 501 kts 330°
2026-05-06 11:20 6.42551 122.34286 37875 ft 501 kts 330°
2026-05-06 11:21 6.48573 122.30809 37866 ft 501 kts 330°
2026-05-06 11:21 6.54588 122.27320 37849 ft 500 kts 330°
2026-05-06 11:22 6.60625 122.23877 37846 ft 500 kts 331°
2026-05-06 11:22 6.66667 122.20457 37847 ft 500 kts 331°
2026-05-06 11:23 6.72713 122.17029 37846 ft 500 kts 330°
2026-05-06 11:23 6.78743 122.13590 37846 ft 499 kts 330°
2026-05-06 11:24 6.84758 122.10129 37846 ft 500 kts 330°
2026-05-06 11:24 6.90774 122.06665 37847 ft 500 kts 332°
2026-05-06 11:25 6.96917 122.03427 37848 ft 500 kts 334°
2026-05-06 11:25 7.03137 122.00343 37846 ft 500 kts 335°
2026-05-06 11:26 7.09379 121.97315 37846 ft 500 kts 335°
2026-05-06 11:26 7.15628 121.94289 37846 ft 500 kts 335°
2026-05-06 11:27 7.21862 121.91241 37846 ft 500 kts 334°
2026-05-06 11:27 7.28082 121.88158 37846 ft 499 kts 334°